Location: Oberkirch
(48.5323°N, 8.0787°E)
Time: 21:11:38
(UTC+00:00)

Tiros 1 - Pass Details

Date: 24 February 2026
Orbit: 618 x 649 km, 48.4° (Epoch: 7 March)

Event Time Altitude Azimuth Distance (km) Brightness Sun altitude
Rises 08:49:15 0° 273° (W) 2,916 10.1 20.9°
Reaches altitude 10° 08:51:35 10° 273° (W) 2,003 9.3 21.1°
Maximum altitude 08:56:11 88° 194° (SSW) 629 7.5 21.7°
Drops below altitude 10° 09:00:46 10° 96° (E) 1,986 10.5 22.2°
Sets 09:03:04 0° 96° (E) 2,889 11.2 22.5°
